Weather History for KMIW - March, 2013

Change the Weather History Date:

Thursday, March 28, 2013

  Actual Average Record
Temperature  
Mean Temperature 39 °F 42 °F  
Max Temperature 51 °F 53 °F 71 °F (2005)
Min Temperature 27 °F 31 °F 17 °F (2015)
Degree Days  
Heating Degree Days 26 23  
Month to date heating degree days 1071 827  
Since 1 July heating degree days 6075 6230  
Cooling Degree Days 0 0  
Month to date cooling degree days 0 0  
Year to date cooling degree days 0 0  
Moisture  
Dew Point 30 °F    
Average Humidity 72    
Maximum Humidity 92    
Minimum Humidity 52    
Precipitation  
Precipitation 0.00 in 0.09 in 0.26 in (1999)
Month to date precipitation 1.53 1.70  
Sea Level Pressure  
Sea Level Pressure 30.31 in    
Wind  
Wind Speed 7 mph (ESE)    
Max Wind Speed 13 mph    
Max Gust Speed 16 mph    
Visibility 10 miles    
Events      
T = Trace of Precipitation, MM = Missing Value Source: NWS Daily Summary

Daily Weather History Graph

Daily Weather History Graph

Search for Another Location

Airport or City:

Trip Planner

Search our weather history database for the weather conditions in past years. The results will help you decide how hot, cold, wet, or windy it might be!

Date:

Astronomy

Mar. 28, 2013 Rise Set
Actual Time 7:00 AM CDT 7:33 PM CDT
Civil Twilight 6:32 AM CDT 8:01 PM CDT
Nautical Twilight 5:59 AM CDT 8:34 PM CDT
Astronomical Twilight 5:25 AM CDT 9:08 PM CDT
Moon 9:28 PM CDT (3/28) 7:27 AM CDT (3/28)
Length of Visible Light 13h 28m
Length of Day
12h 32m
Full, 98% of the Moon is Illuminated
Mar 28
Full
Apr 2
Last Quarter
Apr 10
New
Apr 18
First Quarter
Apr 25
Full

Hourly Weather History & Observations

Time (CDT) Temp. Windchill Dew Point Humidity Pressure Visibility Wind Dir Wind Speed Gust Speed Precip Events Conditions
12:53 AM 30.9 °F 26.2 °F 26.1 °F 82% 30.33 in 10.0 mi East 4.6 mph - N/A   Clear
1:53 AM 30.0 °F 24.1 °F 25.0 °F 82% 30.34 in 10.0 mi East 5.8 mph - N/A   Clear
2:53 AM 28.9 °F 22.8 °F 25.0 °F 85% 30.33 in 10.0 mi East 5.8 mph - N/A   Clear
3:53 AM 30.0 °F 24.1 °F 25.0 °F 82% 30.33 in 10.0 mi East 5.8 mph - N/A   Mostly Cloudy
4:53 AM 30.0 °F 23.2 °F 26.1 °F 85% 30.32 in 10.0 mi East 6.9 mph - N/A   Overcast
5:53 AM 28.9 °F 21.9 °F 25.0 °F 85% 30.32 in 10.0 mi East 6.9 mph - N/A   Clear
6:53 AM 28.9 °F 23.9 °F 26.1 °F 89% 30.33 in 10.0 mi East 4.6 mph - N/A   Overcast
7:53 AM 28.0 °F 24.2 °F 26.1 °F 92% 30.34 in 10.0 mi East 3.5 mph - N/A   Clear
8:53 AM 32.0 °F 26.4 °F 28.0 °F 85% 30.35 in 10.0 mi SE 5.8 mph - N/A   Overcast
9:53 AM 36.0 °F 31.1 °F 28.9 °F 76% 30.35 in 10.0 mi SE 5.8 mph - N/A   Partly Cloudy
10:53 AM 41.0 °F 34.7 °F 28.9 °F 62% 30.35 in 10.0 mi SSE 10.4 mph - N/A   Overcast
11:53 AM 44.1 °F 39.0 °F 30.9 °F 60% 30.34 in 10.0 mi SE 9.2 mph - N/A   Mostly Cloudy
12:53 PM 46.0 °F 41.9 °F 32.0 °F 58% 30.32 in 10.0 mi SE 8.1 mph - N/A   Clear
1:53 PM 48.0 °F - 32.0 °F 54% 30.30 in 10.0 mi ESE 5.8 mph - N/A   Clear
2:53 PM 48.9 °F - 33.1 °F 54% 30.28 in 10.0 mi SE 6.9 mph - N/A   Clear
3:53 PM 50.0 °F - 33.1 °F 52% 30.26 in 10.0 mi East 9.2 mph - N/A   Clear
4:53 PM 50.0 °F - 33.1 °F 52% 30.25 in 10.0 mi ESE 6.9 mph - N/A   Clear
5:53 PM 50.0 °F - 33.1 °F 52% 30.26 in 10.0 mi SE 6.9 mph - N/A   Clear
6:53 PM 45.0 °F 41.8 °F 35.1 °F 68% 30.27 in 10.0 mi East 5.8 mph - N/A   Clear
7:53 PM 41.0 °F 37.1 °F 33.1 °F 73% 30.27 in 10.0 mi East 5.8 mph - N/A   Clear
8:53 PM 37.0 °F 33.3 °F 32.0 °F 82% 30.28 in 10.0 mi ENE 4.6 mph - N/A   Clear
9:53 PM 35.1 °F 30.1 °F 30.9 °F 85% 30.28 in 10.0 mi East 5.8 mph - N/A   Clear
10:53 PM 35.1 °F 29.3 °F 30.0 °F 82% 30.29 in 10.0 mi East 6.9 mph - N/A   Clear
11:53 PM 34.0 °F 27.2 °F 30.0 °F 85% 30.28 in 10.0 mi East 8.1 mph - N/A   Clear